When you browse on this site, cookies collect data to enhance your experience and personalize the content and advertising you see.
Visit our Privacy Policy to learn more. By continuing to use the site, you agree to this use of cookies and data.
  • In Schweiz
  • Länderverzeichnis
  • Für 7 Tage
  • Wassertemperatur
  • Wetterkarte
  • Widgets
  • user-avatar
    Anmelden

    Stündliche Wetter Phönix

    Heute, 10 Dezember, Dienstag

    Zeit Temperatur Niederschläge Wind Luftdruck Luftfeuchtigkeit
    00:00 +15°C° 0 mm 1 m/S 734 mmHg 69%
    01:00 +15°C° 0 mm 1 m/S 734 mmHg 69%
    02:00 +15°C° 0 mm 1 m/S 734 mmHg 69%
    03:00 +15°C° 0 mm 1 m/S 735 mmHg 68%
    04:00 +14°C° 0 mm 0 m/S 735 mmHg 68%
    05:00 +13°C° 0 mm 0 m/S 735 mmHg 67%
    06:00 +14°C° 0 mm 1 m/S 736 mmHg 64%
    07:00 +14°C° 0 mm 1 m/S 736 mmHg 61%
    08:00 +14°C° 0 mm 1 m/S 737 mmHg 58%
    09:00 +15°C° 0 mm 1 m/S 737 mmHg 53%
    10:00 +16°C° 0 mm 1 m/S 737 mmHg 48%
    11:00 +19°C° 0 mm 1 m/S 737 mmHg 43%
    12:00 +19°C° 0 mm 1 m/S 737 mmHg 40%
    13:00 +20°C° 0 mm 1 m/S 736 mmHg 37%
    14:00 +20°C° 0 mm 1 m/S 735 mmHg 34%
    15:00 +18°C° 0 mm 0 m/S 736 mmHg 36%
    16:00 +18°C° 0 mm 0 m/S 736 mmHg 37%
    17:00 +18°C° 0 mm 0 m/S 736 mmHg 38%
    18:00 +17°C° 0 mm 0 m/S 736 mmHg 39%
    19:00 +17°C° 0 mm 0 m/S 736 mmHg 40%
    20:00 +16°C° 0 mm 0 m/S 736 mmHg 41%
    21:00 +16°C° 0 mm 0 m/S 737 mmHg 41%
    22:00 +16°C° 0 mm 0 m/S 737 mmHg 42%
    23:00 +15°C° 0 mm 0 m/S 737 mmHg 42%

    Morgen, 11 Dezember, Mittwoch

    Zeit Temperatur Niederschläge Wind Luftdruck Luftfeuchtigkeit
    00:00 +16°C° 0 mm 1 m/S 736 mmHg 41%
    01:00 +16°C° 0 mm 1 m/S 736 mmHg 41%
    02:00 +16°C° 0 mm 1 m/S 735 mmHg 41%
    03:00 +15°C° 0 mm 1 m/S 735 mmHg 41%
    04:00 +15°C° 0 mm 1 m/S 735 mmHg 41%
    05:00 +15°C° 0 mm 1 m/S 735 mmHg 41%
    06:00 +15°C° 0 mm 1 m/S 735 mmHg 41%
    07:00 +15°C° 0 mm 1 m/S 735 mmHg 41%
    08:00 +15°C° 0 mm 1 m/S 735 mmHg 42%
    09:00 +16°C° 0 mm 1 m/S 735 mmHg 38%
    10:00 +18°C° 0 mm 1 m/S 735 mmHg 35%
    11:00 +19°C° 0 mm 1 m/S 736 mmHg 32%
    12:00 +20°C° 0 mm 1 m/S 735 mmHg 30%
    13:00 +19°C° 0 mm 0 m/S 734 mmHg 28%
    14:00 +19°C° 0 mm 0 m/S 734 mmHg 27%
    15:00 +19°C° 0 mm 0 m/S 734 mmHg 28%
    16:00 +21°C° 0 mm 1 m/S 734 mmHg 29%
    17:00 +21°C° 0 mm 1 m/S 734 mmHg 31%
    18:00 +20°C° 0 mm 1 m/S 734 mmHg 32%
    19:00 +19°C° 0 mm 1 m/S 734 mmHg 33%
    20:00 +18°C° 0 mm 1 m/S 734 mmHg 34%
    21:00 +18°C° 0 mm 1 m/S 735 mmHg 35%
    22:00 +18°C° 0 mm 1 m/S 735 mmHg 36%
    23:00 +16°C° 0 mm 1 m/S 735 mmHg 36%

    übermorgen, 12 Dezember, Donnerstag

    Zeit Temperatur Niederschläge Wind Luftdruck Luftfeuchtigkeit
    00:00 +16°C° 0 mm 1 m/S 735 mmHg 37%
    01:00 +16°C° 0 mm 1 m/S 735 mmHg 38%
    02:00 +15°C° 0 mm 1 m/S 735 mmHg 38%
    03:00 +15°C° 0 mm 1 m/S 735 mmHg 39%
    04:00 +15°C° 0 mm 1 m/S 735 mmHg 40%
    05:00 +14°C° 0 mm 0 m/S 735 mmHg 41%
    06:00 +15°C° 0 mm 1 m/S 736 mmHg 41%
    07:00 +14°C° 0 mm 1 m/S 736 mmHg 41%
    08:00 +14°C° 0 mm 1 m/S 736 mmHg 42%
    09:00 +16°C° 0 mm 1 m/S 737 mmHg 38%
    10:00 +18°C° 0 mm 1 m/S 737 mmHg 34%
    11:00 +20°C° 0 mm 1 m/S 737 mmHg 30%
    12:00 +20°C° 0 mm 1 m/S 737 mmHg 29%
    13:00 +19°C° 0 mm 0 m/S 736 mmHg 29%
    14:00 +20°C° 0 mm 0 m/S 735 mmHg 28%
    15:00 +19°C° 0 mm 0 m/S 735 mmHg 30%
    16:00 +21°C° 0 mm 1 m/S 735 mmHg 32%
    17:00 +21°C° 0 mm 1 m/S 735 mmHg 33%
    18:00 +20°C° 0 mm 1 m/S 736 mmHg 34%
    19:00 +19°C° 0 mm 1 m/S 736 mmHg 35%
    20:00 +19°C° 0 mm 1 m/S 736 mmHg 35%
    21:00 +18°C° 0 mm 1 m/S 736 mmHg 36%
    22:00 +16°C° 0 mm 0 m/S 736 mmHg 37%
    23:00 +16°C° 0 mm 0 m/S 736 mmHg 38%

    13 Dezember, Freitag

    Zeit Temperatur Niederschläge Wind Luftdruck Luftfeuchtigkeit
    00:00 +15°C° 0 mm 0 m/S 736 mmHg 38%
    01:00 +15°C° 0 mm 0 m/S 736 mmHg 38%
    02:00 +15°C° 0 mm 0 m/S 735 mmHg 39%
    03:00 +14°C° 0 mm 0 m/S 735 mmHg 39%
    04:00 +14°C° 0 mm 0 m/S 735 mmHg 39%
    05:00 +14°C° 0 mm 0 m/S 735 mmHg 39%
    06:00 +14°C° 0 mm 0 m/S 735 mmHg 39%
    07:00 +14°C° 0 mm 0 m/S 735 mmHg 40%
    08:00 +14°C° 0 mm 0 m/S 735 mmHg 40%
    09:00 +15°C° 0 mm 0 m/S 735 mmHg 36%
    10:00 +19°C° 0 mm 1 m/S 735 mmHg 32%
    11:00 +20°C° 0 mm 1 m/S 735 mmHg 28%
    12:00 +19°C° 0 mm 0 m/S 734 mmHg 27%
    13:00 +20°C° 0 mm 0 m/S 733 mmHg 26%
    14:00 +20°C° 0 mm 0 m/S 733 mmHg 25%
    15:00 +20°C° 0 mm 0 m/S 732 mmHg 28%
    16:00 +20°C° 0 mm 0 m/S 732 mmHg 30%
    17:00 +19°C° 0 mm 0 m/S 732 mmHg 33%
    18:00 +19°C° 0 mm 0 m/S 732 mmHg 34%
    19:00 +18°C° 0 mm 0 m/S 732 mmHg 35%
    20:00 +17°C° 0 mm 0 m/S 732 mmHg 37%
    21:00 +17°C° 0 mm 0 m/S 732 mmHg 37%
    22:00 +17°C° 0 mm 0 m/S 732 mmHg 38%
    23:00 +16°C° 0 mm 0 m/S 732 mmHg 39%

    14 Dezember, Samstag

    Zeit Temperatur Niederschläge Wind Luftdruck Luftfeuchtigkeit
    00:00 +16°C° 0 mm 0 m/S 731 mmHg 39%
    01:00 +16°C° 0 mm 0 m/S 731 mmHg 40%
    02:00 +15°C° 0 mm 0 m/S 730 mmHg 40%
    03:00 +15°C° 0 mm 0 m/S 730 mmHg 41%
    04:00 +15°C° 0 mm 0 m/S 730 mmHg 41%
    05:00 +16°C° 0 mm 1 m/S 729 mmHg 41%
    06:00 +15°C° 0 mm 0 m/S 729 mmHg 42%
    07:00 +15°C° 0 mm 0 m/S 729 mmHg 43%
    08:00 +15°C° 0 mm 0 m/S 729 mmHg 43%
    09:00 +16°C° 0 mm 0 m/S 729 mmHg 39%
    10:00 +19°C° 0 mm 1 m/S 729 mmHg 35%
    11:00 +21°C° 0 mm 1 m/S 729 mmHg 31%
    12:00 +22°C° 0 mm 1 m/S 728 mmHg 29%
    13:00 +22°C° 0 mm 1 m/S 728 mmHg 27%
    14:00 +23°C° 0 mm 2 m/S 727 mmHg 25%
    15:00 +23°C° 0 mm 2 m/S 727 mmHg 27%
    16:00 +21°C° 0 mm 2 m/S 727 mmHg 29%
    17:00 +21°C° 0 mm 2 m/S 727 mmHg 31%
    18:00 +21°C° 0 mm 1 m/S 727 mmHg 33%
    19:00 +20°C° 0 mm 1 m/S 727 mmHg 34%
    20:00 +20°C° 0 mm 1 m/S 726 mmHg 36%
    21:00 +19°C° 0 mm 1 m/S 726 mmHg 36%
    22:00 +19°C° 0 mm 1 m/S 726 mmHg 37%
    23:00 +18°C° 0 mm 1 m/S 726 mmHg 38%

    15 Dezember, Sonntag

    Zeit Temperatur Niederschläge Wind Luftdruck Luftfeuchtigkeit
    00:00 +18°C° 0 mm 1 m/S 726 mmHg 38%
    01:00 +18°C° 0 mm 1 m/S 726 mmHg 39%
    02:00 +16°C° 0 mm 1 m/S 726 mmHg 39%
    03:00 +16°C° 0 mm 1 m/S 726 mmHg 41%
    04:00 +16°C° 0 mm 1 m/S 726 mmHg 44%
    05:00 +15°C° 0 mm 1 m/S 726 mmHg 46%
    06:00 +15°C° 0 mm 1 m/S 727 mmHg 48%
    07:00 +15°C° 0 mm 1 m/S 727 mmHg 49%
    08:00 +15°C° 0 mm 1 m/S 728 mmHg 50%
    09:00 +16°C° 0 mm 1 m/S 728 mmHg 47%
    10:00 +17°C° 0 mm 2 m/S 728 mmHg 44%
    11:00 +18°C° 0 mm 2 m/S 728 mmHg 41%
    12:00 +19°C° 0 mm 3 m/S 728 mmHg 39%
    13:00 +19°C° 0 mm 4 m/S 727 mmHg 37%
    14:00 +20°C° 0 mm 5 m/S 727 mmHg 35%
    15:00 +19°C° 0 mm 5 m/S 727 mmHg 33%
    16:00 +19°C° 0 mm 6 m/S 727 mmHg 31%
    17:00 +17°C° 0 mm 6 m/S 728 mmHg 28%
    18:00 +16°C° 0 mm 5 m/S 728 mmHg 30%
    19:00 +15°C° 0 mm 5 m/S 729 mmHg 33%
    20:00 +14°C° 0 mm 4 m/S 730 mmHg 35%
    21:00 +14°C° 0 mm 4 m/S 731 mmHg 36%
    22:00 +13°C° 0 mm 4 m/S 731 mmHg 37%
    23:00 +13°C° 0 mm 3 m/S 732 mmHg 38%
    Mehr zeigen